Back to catalog

CZ-2C DEB

AliveSSO
NORAD 40290·DEBRIS·🇨🇳 China

Launched Oct 27, 2014 from Jiuquan Satellite Launch Center

Loading…

Next Passes (next 24 hours)

TLE

FreshSource: Space-Track

Epoch: Sep 14, 2026, 09:22 UTC

1 40290U 14066E   26257.39086180  .00012030  00000-0  88885-3 0  9995
2 40290  97.9603 237.0315 0035772 249.2563 110.4826 15.02868011633373

Track CZ-2C DEB in real time with AllMySat

Download on the App Store